Location: Banios
(43.0451°N, 0.2335°E)
Time: 13:51:13
(UTC+00:00)

Cosmos 1892 - Pass Details

Date: 25 January 2021
Orbit: 504 x 522 km, 82.5° (Epoch: 25 February)

Event Time Altitude Azimuth Distance (km) Brightness Sun altitude
Rises 06:44:35 0° 351° (N) 2,643 6.0 -7.0°
Reaches altitude 10° 06:46:43 10° 350° (N) 1,754 5.1 -6.6°
Maximum altitude 06:50:35 83° 264° (W) 529 2.7 -5.9°
Drops below altitude 10° 06:54:25 10° 176° (S) 1,749 5.7 -5.3°
Sets 06:56:33 0° 175° (S) 2,634 6.7 -4.9°
